Tracking 17145 objects as of 24-May-2015
HD Live streaming from Space Station

COSMOS 2378

Track COSMOS 2378 now!
10-day predictions
COSMOS 2378 is classified as:


NORAD ID: 26818
Int'l Code: 2001-023A
Perigee: 967.9 km
Apogee: 1,017.8 km
Inclination: 82.9 °
Period: 104.8 minutes
Semi major axis: 7363 km
RCS: 1.9621 m2 (large)
Launch date: June 8, 2001
Source: Commonwealth of Independent States (former USSR) (CIS)

Normally part of a six-satellite constellation.
Your satellite tracking list
Your tracking list is empty





NASA's NSSDC Master Catalog

Two Line Element Set (TLE):
1 26818U 01023A   15143.02528470  .00000065  00000-0  53219-4 0  9998
2 26818 082.9269 337.6145 0033880 141.2683 219.0920 13.73879261699700

Source of the keplerian elements: AFSPC

N2YO: 371